• In Germany
  • List of Countries
  • For 7 days
  • Water Temperature
  • Satellite Maps
  • Weather Map
  • Weather Widgets
  • user-avatar
    Login

    Hourly Weather Etchmiadzin

    Today, 21 October, Sunday

    Time Temperature Precipitation Wind Pressure Humidity
    00:00 +15°C° 0.2 mm 1 mps 686 mmHg 63%
    01:00 +15°C° 0.1 mm 1 mps 686 mmHg 65%
    02:00 +14°C° 0.1 mm 1 mps 686 mmHg 66%
    03:00 +14°C° 0.1 mm 1 mps 686 mmHg 67%
    04:00 +14°C° 0 mm 1 mps 686 mmHg 68%
    05:00 +14°C° 0 mm 1 mps 686 mmHg 69%
    06:00 +14°C° 0 mm 1 mps 686 mmHg 69%
    07:00 +15°C° 0 mm 1 mps 686 mmHg 63%
    08:00 +17°C° 0 mm 2 mps 687 mmHg 57%
    09:00 +19°C° 0 mm 2 mps 687 mmHg 49%
    10:00 +20°C° 0 mm 2 mps 687 mmHg 46%
    11:00 +21°C° 0 mm 2 mps 687 mmHg 43%
    12:00 +22°C° 0 mm 3 mps 687 mmHg 40%
    13:00 +22°C° 0 mm 3 mps 686 mmHg 40%
    14:00 +22°C° 0 mm 3 mps 686 mmHg 39%
    15:00 +22°C° 0 mm 3 mps 686 mmHg 39%
    16:00 +21°C° 0.1 mm 3 mps 686 mmHg 43%
    17:00 +20°C° 0.1 mm 2 mps 686 mmHg 47%
    18:00 +18°C° 0.1 mm 2 mps 686 mmHg 51%
    19:00 +18°C° 0.2 mm 2 mps 686 mmHg 53%
    20:00 +17°C° 0.2 mm 2 mps 686 mmHg 54%
    21:00 +18°C° 0.2 mm 1 mps 686 mmHg 56%
    22:00 +16°C° 0.1 mm 1 mps 686 mmHg 57%
    23:00 +16°C° 0.1 mm 1 mps 686 mmHg 59%

    Tomorrow, 22 October, Monday

    Time Temperature Precipitation Wind Pressure Humidity
    00:00 +15°C° 0.1 mm 1 mps 686 mmHg 60%
    01:00 +15°C° 0.1 mm 1 mps 686 mmHg 60%
    02:00 +15°C° 0.1 mm 1 mps 686 mmHg 60%
    03:00 +15°C° 0.1 mm 1 mps 686 mmHg 61%
    04:00 +15°C° 0.4 mm 1 mps 686 mmHg 63%
    05:00 +15°C° 0.4 mm 1 mps 686 mmHg 65%
    06:00 +15°C° 0.4 mm 1 mps 686 mmHg 67%
    07:00 +16°C° 0.2 mm 2 mps 686 mmHg 63%
    08:00 +17°C° 0.2 mm 2 mps 687 mmHg 60%
    09:00 +18°C° 0.2 mm 2 mps 687 mmHg 57%
    10:00 +19°C° 0 mm 3 mps 687 mmHg 53%
    11:00 +20°C° 0 mm 3 mps 687 mmHg 49%
    12:00 +21°C° 0 mm 3 mps 687 mmHg 45%
    13:00 +21°C° 0 mm 3 mps 687 mmHg 45%
    14:00 +21°C° 0 mm 3 mps 687 mmHg 44%
    15:00 +22°C° 0 mm 3 mps 687 mmHg 43%
    16:00 +20°C° 0 mm 2 mps 687 mmHg 48%
    17:00 +19°C° 0 mm 2 mps 686 mmHg 52%
    18:00 +18°C° 0 mm 1 mps 686 mmHg 57%
    19:00 +18°C° 0 mm 1 mps 687 mmHg 58%
    20:00 +16°C° 0 mm 1 mps 687 mmHg 59%
    21:00 +16°C° 0 mm 1 mps 687 mmHg 60%
    22:00 +16°C° 0.1 mm 1 mps 687 mmHg 61%
    23:00 +15°C° 0.1 mm 1 mps 687 mmHg 61%

    Day after tomorrow, 23 October, Tuesday

    Time Temperature Precipitation Wind Pressure Humidity
    00:00 +15°C° 0.1 mm 1 mps 687 mmHg 62%
    01:00 +15°C° 0 mm 1 mps 687 mmHg 63%
    02:00 +14°C° 0 mm 1 mps 687 mmHg 63%
    03:00 +14°C° 0 mm 1 mps 687 mmHg 64%
    04:00 +14°C° 0 mm 1 mps 687 mmHg 65%
    05:00 +14°C° 0 mm 1 mps 686 mmHg 66%
    06:00 +14°C° 0 mm 1 mps 686 mmHg 66%
    07:00 +15°C° 0 mm 1 mps 687 mmHg 61%
    08:00 +17°C° 0 mm 2 mps 687 mmHg 56%
    09:00 +18°C° 0 mm 2 mps 688 mmHg 50%
    10:00 +19°C° 0 mm 2 mps 687 mmHg 47%
    11:00 +20°C° 0 mm 3 mps 687 mmHg 45%
    12:00 +21°C° 0 mm 3 mps 687 mmHg 42%
    13:00 +21°C° 0.1 mm 3 mps 686 mmHg 41%
    14:00 +22°C° 0.1 mm 3 mps 686 mmHg 41%
    15:00 +22°C° 0.1 mm 3 mps 686 mmHg 40%
    16:00 +20°C° 0.1 mm 3 mps 685 mmHg 45%
    17:00 +18°C° 0.1 mm 2 mps 685 mmHg 50%
    18:00 +17°C° 0.1 mm 2 mps 685 mmHg 55%
    19:00 +17°C° 0 mm 2 mps 685 mmHg 55%
    20:00 +16°C° 0 mm 2 mps 685 mmHg 56%
    21:00 +16°C° 0 mm 2 mps 686 mmHg 56%
    22:00 +16°C° 0 mm 2 mps 686 mmHg 57%
    23:00 +15°C° 0 mm 2 mps 685 mmHg 58%

    24 October, Wednesday

    Time Temperature Precipitation Wind Pressure Humidity
    00:00 +15°C° 0 mm 2 mps 685 mmHg 59%
    01:00 +15°C° 0.2 mm 2 mps 685 mmHg 61%
    02:00 +15°C° 0.2 mm 2 mps 685 mmHg 62%
    03:00 +15°C° 0.2 mm 1 mps 684 mmHg 64%
    04:00 +14°C° 0.6 mm 2 mps 684 mmHg 66%
    05:00 +14°C° 0.6 mm 2 mps 684 mmHg 69%
    06:00 +14°C° 0.6 mm 2 mps 684 mmHg 71%
    07:00 +15°C° 0.1 mm 2 mps 684 mmHg 68%
    08:00 +16°C° 0.1 mm 3 mps 685 mmHg 65%
    09:00 +17°C° 0.1 mm 3 mps 685 mmHg 61%
    10:00 +18°C° 0.1 mm 4 mps 684 mmHg 58%
    11:00 +19°C° 0.1 mm 4 mps 684 mmHg 54%
    12:00 +20°C° 0.1 mm 4 mps 683 mmHg 51%
    13:00 +20°C° 0.4 mm 4 mps 683 mmHg 52%
    14:00 +20°C° 0.4 mm 4 mps 682 mmHg 53%
    15:00 +20°C° 0.4 mm 4 mps 682 mmHg 54%
    16:00 +19°C° 0.5 mm 4 mps 682 mmHg 57%
    17:00 +18°C° 0.5 mm 3 mps 682 mmHg 61%
    18:00 +17°C° 0.5 mm 3 mps 681 mmHg 65%
    19:00 +17°C° 0.5 mm 3 mps 681 mmHg 66%
    20:00 +17°C° 0.5 mm 3 mps 682 mmHg 68%
    21:00 +17°C° 0.5 mm 3 mps 682 mmHg 70%
    22:00 +16°C° 0.3 mm 3 mps 681 mmHg 71%
    23:00 +16°C° 0.3 mm 3 mps 681 mmHg 72%

    25 October, Thursday

    Time Temperature Precipitation Wind Pressure Humidity
    00:00 +14°C° 0.3 mm 3 mps 681 mmHg 73%
    01:00 +14°C° 0.1 mm 3 mps 681 mmHg 73%
    02:00 +14°C° 0.1 mm 3 mps 681 mmHg 73%
    03:00 +14°C° 0.1 mm 3 mps 680 mmHg 73%
    04:00 +13°C° 0.1 mm 3 mps 680 mmHg 73%
    05:00 +13°C° 0.1 mm 3 mps 680 mmHg 73%
    06:00 +13°C° 0.1 mm 3 mps 680 mmHg 73%
    07:00 +14°C° 0.1 mm 4 mps 680 mmHg 68%
    08:00 +17°C° 0.1 mm 4 mps 679 mmHg 62%
    09:00 +17°C° 0.1 mm 5 mps 679 mmHg 57%
    10:00 +19°C° 0.2 mm 6 mps 679 mmHg 54%
    11:00 +20°C° 0.2 mm 6 mps 678 mmHg 51%
    12:00 +21°C° 0.2 mm 7 mps 678 mmHg 48%
    13:00 +21°C° 0.9 mm 6 mps 677 mmHg 51%
    14:00 +20°C° 0.9 mm 6 mps 677 mmHg 53%
    15:00 +20°C° 0.9 mm 6 mps 676 mmHg 56%
    16:00 +19°C° 2.4 mm 5 mps 676 mmHg 63%
    17:00 +17°C° 2.4 mm 5 mps 676 mmHg 71%
    18:00 +15°C° 2.4 mm 4 mps 676 mmHg 78%
    19:00 +15°C° 0.3 mm 4 mps 676 mmHg 78%
    20:00 +15°C° 0.3 mm 4 mps 676 mmHg 78%
    21:00 +15°C° 0.3 mm 4 mps 676 mmHg 78%
    22:00 +15°C° 0.7 mm 4 mps 676 mmHg 77%
    23:00 +15°C° 0.7 mm 4 mps 676 mmHg 77%

    26 October, Friday

    Time Temperature Precipitation Wind Pressure Humidity
    00:00 +15°C° 0.7 mm 4 mps 676 mmHg 76%
    01:00 +15°C° 0.9 mm 4 mps 676 mmHg 76%
    02:00 +15°C° 0.9 mm 4 mps 676 mmHg 76%
    03:00 +15°C° 0.9 mm 4 mps 677 mmHg 76%
    04:00 +15°C° 0.3 mm 4 mps 677 mmHg 76%
    05:00 +14°C° 0.3 mm 4 mps 677 mmHg 76%
    06:00 +14°C° 0.3 mm 4 mps 677 mmHg 76%
    07:00 +15°C° 0.4 mm 5 mps 678 mmHg 72%
    08:00 +16°C° 0.4 mm 5 mps 678 mmHg 68%
    09:00 +17°C° 0.4 mm 5 mps 679 mmHg 64%
    10:00 +16°C° 1 mm 5 mps 679 mmHg 65%
    11:00 +17°C° 1 mm 4 mps 679 mmHg 67%
    12:00 +15°C° 1 mm 4 mps 679 mmHg 68%
    13:00 +16°C° 0.9 mm 3 mps 679 mmHg 66%
    14:00 +14°C° 0.9 mm 3 mps 679 mmHg 63%
    15:00 +14°C° 0.9 mm 3 mps 679 mmHg 61%
    16:00 +13°C° 1.2 mm 4 mps 679 mmHg 63%
    17:00 +12°C° 1.2 mm 4 mps 680 mmHg 66%
    18:00 +9°C° 1.2 mm 5 mps 681 mmHg 69%
    19:00 +9°C° 0.4 mm 5 mps 682 mmHg 67%
    20:00 +8°C° 0.4 mm 4 mps 683 mmHg 66%
    21:00 +8°C° 0.4 mm 4 mps 684 mmHg 65%
    22:00 +8°C° 0 mm 4 mps 685 mmHg 66%
    23:00 +8°C° 0 mm 3 mps 686 mmHg 67%
    Show more